Location: Milton Keynes
(52.0316°N, 0.7531°W)
Time: 00:37:48
(UTC+00:00)

BlueWalker 3 - Pass Details

Date: 21 December 2025
Orbit: 451 x 463 km, 53.2° (Epoch: 15 January)

Event Time Altitude Azimuth Distance (km) Brightness Sun altitude
Rises 07:14:13 0° 225° (SW) 2,457 5.3 -7.8°
Reaches altitude 10° 07:16:26 10° 217° (SW) 1,589 4.4 -7.6°
Maximum altitude 07:19:46 38° 149° (SSE) 719 3.4 -7.1°
Drops below altitude 10° 07:23:07 10° 80° (E) 1,603 5.3 -6.7°
Sets 07:25:21 0° 72° (ENE) 2,482 6.1 -6.4°
